#timestamp,LO_Frequency,Hit,StdDev 
1630144815.6,286046998.5,N
1630144835.4,286047002.1,N
1630144855.3,286046997.5,N
1630144875.1,286046995.7,N
1630144895.9,286046995.5,N
1630144915.7,286046993.6,N
1630144935.5,286046992.1,N
1630144955.4,286046993.6,N
1630144975.2,286046993.8,N
1630144995.0,286046994.3,N
1630144995.9,286046994.3,N
1630145015.8,286046992.8,N
1630145035.6,286046993.9,N
1630145055.5,286046992.9,N
1630145075.3,286046992.1,N
1630145095.1,286046992.2,N
1630145115.9,286046992.3,N
1630145135.7,286046991.7,N
1630145155.5,286046990.3,N
1630145175.4,286046990.5,N
1630145195.2,286046992.5,N
1630145215.0,286046994.7,N
1630145216.0,286046994.7,N
1630145235.8,286046994.6,N
1630145255.6,286046993.2,N
1630145275.5,286046988.7,N
1630145295.3,286046987.2,Y
1630145315.1,286046992.4,P
1630145335.9,286046992.6,P
1630145355.7,286046993.6,P
1630145375.6,286046994.1,Y
1630145395.4,286046999.7,P
1630145415.2,286047002.5,N
1630145435.1,286047000.6,N
1630145436.0,286047000.6,N
1630145455.8,286047000.8,N
1630145475.1,286046998.3,N
1630145495.9,286046996.8,N
1630145515.7,286046999.4,N
1630145535.5,286046996.9,N
1630145555.4,286047001.2,N
1630145575.2,286047000.0,N
1630145595.0,286046999.0,N
1630145596.0,286046999.0,N
1630145615.8,286046999.0,N
1630145635.6,286046999.6,N
1630145655.5,286047003.8,N
1630145675.3,286047005.6,N
1630145695.1,286047003.9,N
1630145715.9,286047007.3,N
1630145735.7,286047004.0,N
1630145755.5,286047002.7,N
1630145775.4,286047000.3,N
1630145795.2,286046999.1,N
1630145815.1,286047002.1,N
1630145816.0,286047002.1,N
1630145835.8,286047001.5,N
1630145855.6,286047000.1,N
1630145875.5,286047001.5,N
1630145895.3,286047003.4,N
1630145915.2,286047003.6,N
1630145935.0,286047003.0,N
1630145935.9,286047003.0,N
1630145955.8,286047004.6,N
1630145975.6,286047004.5,N
1630145995.4,286047007.1,N
1630146015.3,286047006.5,N
1630146035.1,286047006.2,N
1630146055.9,286047009.1,Y
1630146075.7,286047005.2,P
1630146095.5,286047005.5,P
1630146115.4,286047006.4,P
1630146135.2,286047010.6,Y
1630146155.0,286047005.1,P
1630146155.9,286047005.1,P
1630146175.8,286047005.9,P
1630146195.6,286047001.4,Y
1630146215.5,286046996.6,P
1630146235.3,286047001.1,N
1630146255.1,286047000.9,N
1630146275.9,286047000.0,N
1630146295.7,286047002.5,N
1630146315.5,286046998.7,N
1630146335.4,286047001.2,N
1630146355.2,286046999.1,N
1630146375.1,286047001.0,N
1630146376.0,286047001.0,N
1630146395.8,286047002.8,N
1630146415.6,286046998.9,N
1630146435.5,286046998.4,N
1630146455.3,286046993.9,N
1630146475.1,286046995.6,N
1630146495.9,286046997.3,N
1630146515.7,286047000.4,N
1630146535.6,286047001.8,N
1630146555.4,286047002.7,N
1630146575.2,286047004.0,N
1630146595.1,286047010.5,Y
1630146596.0,286047010.5,P
1630146615.8,286047004.5,N
1630146635.7,286047004.7,N
1630146655.5,286047005.5,N
1630146675.3,286047006.2,N
1630146695.2,286047006.3,N
1630146715.0,286047009.2,Y
1630146715.9,286047009.2,P
1630146735.7,286047001.5,N
1630146755.6,286047003.8,N
1630146775.4,286047004.8,N
1630146795.3,286047008.4,Y
1630146815.1,286047005.0,P
1630146816.0,286047005.0,P
1630146835.8,286047005.2,P
1630146855.7,286047001.4,Y
1630146875.5,286046999.0,P
1630146895.4,286047001.3,N
1630146915.2,286047005.5,N
1630146935.0,286047003.0,N
1630146935.9,286047003.0,N
1630146955.8,286047003.6,N
1630146975.6,286047003.9,N
1630146995.4,286047002.9,N
1630147015.3,286047004.6,N
1630147035.1,286047008.3,Y
1630147055.9,286047006.7,P
1630147075.7,286047007.1,P
1630147095.5,286047006.1,P
1630147115.4,286047009.4,Y
1630147135.2,286047005.1,P
1630147155.0,286047005.1,P
1630147155.9,286047005.1,P
1630147175.8,286047002.9,Y
1630147195.6,286046995.8,P
1630147215.5,286046993.7,N
1630147235.3,286046996.1,N
1630147255.1,286046993.6,N
1630147275.9,286046993.8,N
1630147295.7,286046997.5,N
1630147315.5,286047000.4,N
1630147335.4,286046998.8,N
1630147355.2,286047002.6,N
1630147375.1,286046998.2,N
1630147376.0,286046998.2,N
1630147395.8,286047004.4,N
1630147415.6,286047004.9,N
1630147435.5,286047004.6,N
1630147455.3,286047004.6,N
1630147475.1,286047006.7,N
1630147495.9,286047006.0,N
1630147515.7,286047001.3,N
1630147535.6,286047002.3,N
1630147555.4,286046999.3,N
1630147575.2,286046995.4,N
1630147595.1,286046996.3,N
1630147596.0,286046996.3,N
1630147615.8,286046992.0,N
1630147635.6,286046994.2,N
1630147655.5,286046994.1,N
1630147675.3,286046994.3,N
1630147695.2,286046994.8,N
1630147715.9,286046991.7,N
1630147735.7,286046992.7,N
1630147755.6,286046990.6,N
1630147775.4,286046990.8,N
1630147795.2,286046987.5,N
1630147815.1,286046991.1,N
1630147816.0,286046991.1,N
1630147835.8,286046992.6,N
1630147855.7,286046994.1,N
1630147875.5,286046992.7,N
1630147895.3,286046990.5,N
1630147915.2,286046990.8,N
1630147935.0,286046990.6,N
1630147935.9,286046990.6,N
1630147955.8,286046992.0,N
1630147975.6,286046991.2,N
1630147995.4,286046993.1,N
1630148015.3,286046991.5,N
1630148035.1,286046988.6,N
1630148055.9,286046991.0,N
1630148075.7,286046987.3,Y
1630148095.5,286046995.2,P
1630148115.4,286046994.7,P
1630148135.2,286046991.9,P
1630148155.1,286046997.0,N
1630148156.0,286046997.0,N
1630148175.8,286047001.0,N
1630148195.6,286047003.6,N
1630148215.5,286047006.6,N
1630148235.3,286047007.6,N
1630148255.1,286047003.1,N
1630148275.9,286047004.1,N
1630148295.7,286047000.5,N
1630148315.6,286046998.9,N
1630148335.4,286047000.6,N
1630148355.2,286047000.8,N
1630148375.1,286046998.3,N
1630148376.0,286046998.3,N
1630148395.8,286046996.9,N
